Location: Bidart
(43.4376°N, 1.5913°W)
Time: 08:45:40
(UTC+00:00)

USA 229 DEB - Pass Details

Date: 16 April 2026
Orbit: 844 x 1364 km, 63.4° (Epoch: 10 January)

Event Time Altitude Azimuth Distance (km) Brightness Sun altitude
Rises 00:44:43 0° 324° (NW) 3,951 7.2 -35.8°
Reaches altitude 10° 00:47:27 10° 331° (NNW) 3,065 6.6 -35.7°
Maximum altitude 00:54:36 47° 44° (NE) 1,616 4.8 -35.4°
Enters shadow 01:00:14 19° 109° (ESE) 2,688 5.7 -35.1°
